Preview of NWS' New Version of Forecast
This preview is not operational and should not be used for support decisions.

Regional Weather Roundup (RWR)

Issued by National Weather Service (NWS)

                            
000
ASUS45 KBOI 212310
RWRID 

IDAHO REGIONAL WEATHER ROUNDUP
NATIONAL WEATHER SERVICE BOISE ID
400 PM MST THU FEB 21 2019

NOTE: "FAIR" INDICATES FEW OR NO CLOUDS BELOW 12000 FEET
WITH NO SIGNIFICANT WEATHER AND/OR OBSTRUCTIONS TO VISIBILITY

IDZ012-014-220000-
SOUTHWEST IDAHO

  
CITY           SKY/WX    TMP DP  RH WIND       PRES   REMARKS
BOISE          MOSUNNY   32  24  72 NW10      29.88R WCI  24          
CALDWELL       PTSUNNY   36  22  56 NW9       29.91S WCI  29          
MOUNTAIN HOME  CLOUDY    29  29 100 NW13      29.88S WCI  19          
$$

IDZ016-017-220000-
SOUTHCENTRAL IDAHO

  
CITY           SKY/WX    TMP DP  RH WIND       PRES   REMARKS
BURLEY         SUNNY     27   9  46 NE12G22   29.78R WCI  17          
JEROME         SUNNY     24  14  65 W7        29.82R WCI  16          
TWIN FALLS     SUNNY     25  10  53 NE13      29.81R WCI  14          
$$

IDZ019>023-220000-
SOUTHEAST IDAHO

  
CITY           SKY/WX    TMP DP  RH WIND       PRES   REMARKS
IDAHO FALLS    SUNNY     22  11  62 N12       29.78R WCI  10          
POCATELLO      SUNNY     25  12  58 NE13      29.77S WCI  14          
REXBURG        SUNNY     28  11  48 N7        29.76R WCI  21          
$$

IDZ006-010-011-018-031-032-220000-
CENTRAL IDAHO MOUNTAINS

  
CITY           SKY/WX    TMP DP  RH WIND       PRES   REMARKS
MCCALL         MOSUNNY   26  14  60 W10       29.76S WCI  16          
HAILEY         SUNNY     21  12  68 SE5       29.75R WCI  15          
STANLEY          N/A     21   9  59 NW3       29.71R                  
SALMON         SUNNY     27   5  39 E9        29.89R WCI  18          
CHALLIS        SUNNY     28   6  39 NW6       29.79R WCI  22          
$$

IDZ002-004-006-007-026-220000-
NORTHERN IDAHO

  
CITY           SKY/WX    TMP DP  RH WIND       PRES   REMARKS
LEWISTON       SUNNY     29  22  75 S6        30.08S WCI  23          
LOWELL         NOT AVBL                                               
COEUR D'ALENE  SUNNY     31  16  54 NE7       30.01F WCI  24          
MULLAN PASS    SUNNY     13   7  77 CALM      29.82R                  
$$